Погода в Бедыке

Россия / Кабардино-Балкарская Республика     43°30′39″N   43°09′14″E
темп.,
°C
ветер,
м/с
пор.,
м/с
влажн.,
%
обл.,
%
осадки,
мм/ч
давл.,
гПа
погр.,
м
21 января, чт
чт2100:00−16юз347262 0.0 102934
03:00−15юз346335 0.0 103029
06:00−15юз34580 0.0 103227
09:00−12юз23630 0.0 103131
12:00−7в11710 0.0 1032356
15:00−6всв11790 0.0 1031263
18:00−10юз34690 0.0 103430
21:00−10юз44530 0.0 103437
22 января, пт
пт2200:00−9юз44470 0.0 103437
03:00−8юз44430 0.0 103332
06:00−8юз44410 0.0 103328
09:00−5юз33510 0.0 103127
12:00−1юв11660 0.0 1029216
15:000вюв11890 0.0 102797
18:00−5ююз33580 0.0 102922
21:00−5юз34450 0.0 102924
23 января, сб
сб2300:00−5юз34430 0.0 102924
03:00−4юз44440 0.0 102826
06:00−5юз34450 0.0 102825
09:00−2юз33552 0.0 102725
12:000вюв11894 0.0 102577
15:00+1ссв00961 0.0 102325
18:00−3юз34610 0.0 102524
21:00−3юз444811 0.0 102535
24 января, вс
вс2400:00−2юз444875 0.0 102533
03:00−3юз554746 0.0 102439
06:00−3юз55460 0.0 102339
09:00−1юз44520 0.0 102240
12:00+3ююв00990 0.0 102037
15:00+3ю019117 0.0 101822
18:00+1юз4456100 0.0 102032
21:00+1юз4552100 0.0 102042
25 января, пн
пн2500:00+1юз555197 0.0 102046
03:00+1юз555299 0.0 102043
06:00+1юз454992 0.0 102036
09:00+2юз445291 0.0 102040
12:00+4юз1287100 0.0 101722
15:00+4ююв019362 0.0 101622
18:000юз44510 0.0 101829
21:00+1юз445046 0.0 101838